EHI
0 0 0 0 0 0 0 0 0 0 0 0 0 0 2 5 7 7 6 4 4 6 8 11 14 16 17 16 16 18 18 15 14 13 10 7 6 6 6 6 4 2 1 1
0 0 0 0 0 0 0 0 0 0 0 0 0 1 3 5 5 6 5 4 5 8 11 12 14 16 18 17 16 17 18 17 16 13 10 7 6 5 3 3 4 3 1 1
0 0 0 0 0 0 0 0 0 0 0 0 0 1 2 3 3 3 2 3 6 9 11 12 13 14 15 14 13 14 17 18 18 13 8 6 5 5 2 2 4 3 1 0
0 0 0 0 0 0 0 0 0 0 0 0 0 0 1 1 1 1 1 2 6 9 9 9 9 10 11 10 9 11 13 16 17 14 8 4 4 5 4 3 2 2 0 0
0 0 0 0 0 0 0 0 0 0 0 0 0 0 0 0 0 1 1 3 6 8 7 6 7 9 10 9 8 8 10 12 13 12 9 6 3 3 4 2 2 2 2 1
0 0 0 0 0 0 0 0 0 0 0 0 0 0 0 0 1 2 3 4 8 8 6 6 7 8 9 9 7 6 7 8 10 10 8 5 3 3 4 3 3 3 3 3
0 0 0 0 0 0 0 0 0 0 0 0 0 0 0 0 1 3 4 6 8 7 5 5 7 7 7 7 7 6 7 7 8 9 7 5 5 6 7 6 5 3 3 4
0 0 0 0 0 0 0 0 0 0 0 0 0 0 0 1 2 3 4 5 6 6 5 5 7 7 6 6 6 6 7 8 8 8 7 6 7 8 9 8 6 3 3 4
0 0 0 0 0 0 0 0 0 0 0 0 0 0 0 1 2 3 3 4 6 6 5 6 7 7 6 5 4 4 5 7 7 8 8 7 7 8 8 8 7 6 5 5
0 0 0 0 0 0 0 0 0 0 0 0 0 0 0 1 2 2 2 3 6 7 5 5 6 5 4 4 3 2 4 6 7 8 8 7 7 8 8 7 8 8 7 6
0 0 0 0 0 0 0 0 0 0 0 0 0 0 0 1 1 1 1 3 4 5 5 4 5 4 3 4 3 3 4 6 8 9 9 8 8 9 9 9 9 9 7 6
0 0 0 0 0 0 0 0 0 0 0 0 0 0 0 1 1 1 1 1 2 4 4 4 5 5 4 4 4 5 5 7 9 11 12 11 11 10 9 9 9 9 8 7
0 0 0 0 0 0 0 0 0 0 0 0 0 0 0 1 1 1 1 1 3 5 6 6 6 7 6 6 7 7 6 7 9 12 13 14 12 10 8 8 9 9 9 8
0 0 0 0 0 0 0 0 0 0 0 0 0 0 0 1 1 1 0 1 3 5 7 7 8 8 8 8 9 10 8 7 8 10 12 13 12 9 8 8 9 10 10 10
0 0 0 0 0 0 0 0 0 1 1 1 0 0 1 1 1 0 0 1 1 2 4 6 6 7 9 10 11 12 11 9 7 7 8 10 11 10 10 10 10 10 10 10
0 0 0 0 0 0 0 0 0 1 2 2 1 0 1 0 0 0 1 2 1 0 1 2 3 5 8 9 10 11 11 10 8 6 7 8 9 11 12 12 11 11 10 9
0 0 0 0 0 0 1 0 0 1 2 2 1 0 0 0 0 0 1 3 2 0 1 2 3 5 6 6 7 8 10 11 10 9 7 7 8 9 10 11 10 10 10 9
0 0 0 0 0 0 0 0 0 0 1 1 0 0 0 0 0 0 1 2 2 2 3 4 4 5 6 6 5 7 10 11 10 8 8 7 7 8 9 10 10 10 10 9
0 0 0 0 0 0 0 0 0 0 0 0 0 0 0 0 0 0 1 1 2 4 6 6 5 6 7 6 5 6 8 7 6 5 6 6 7 8 8 9 10 10 9 9
1 1 1 1 0 0 0 0 0 0 0 0 0 0 0 0 0 0 1 1 2 5 7 6 5 5 5 5 4 4 4 2 1 2 4 5 6 7 8 9 9 10 10 10
1 2 2 1 0 0 0 0 0 0 0 0 0 0 0 0 0 0 0 1 3 6 7 6 4 4 3 4 4 4 2 1 0 1 2 4 5 6 6 7 9 10 10 10
0 1 1 1 0 0 0 0 0 0 0 0 0 0 0 0 0 0 0 1 4 7 7 5 4 4 3 3 5 4 3 1 0 0 1 3 4 4 5 6 8 9 9 9
0 0 0 0 0 0 0 0 0 0 0 0 0 0 0 0 0 0 0 2 5 6 6 4 4 4 3 4 5 5 3 1 0 0 1 3 4 4 4 6 7 7 7 8
0 0 0 0 0 0 0 0 0 0 0 0 0 0 0 0 0 0 1 3 5 7 6 5 3 3 3 3 4 5 4 1 0 1 2 3 3 3 4 5 6 6 6 5
0 0 0 0 0 0 0 0 0 0 0 0 0 0 1 1 1 1 2 4 6 7 7 5 2 1 2 3 4 5 4 3 1 1 2 2 2 2 3 4 5 6 5 4
0 0 0 0 0 0 0 0 0 0 0 0 0 1 2 2 2 2 3 4 5 7 6 3 1 1 2 3 4 4 4 3 2 1 1 1 1 2 3 4 4 4 4 2
Wind_Speed
9 11 11 9 9 8 8 9 8 5 2 5 6 5 3 3 5 5 5 5 5 5 5 5 5 5 4 4 4 5 4 4 3 2 2 2 2 1 1 1 0 2 3 2
10 12 10 8 7 8 9 10 8 4 2 5 6 6 4 4 5 5 4 5 5 5 5 5 5 5 4 4 4 4 4 4 4 2 2 1 1 1 1 1 1 1 2 2
13 7 6 9 10 10 10 10 7 6 4 6 7 7 6 5 4 4 4 4 4 5 6 5 5 5 4 4 4 3 3 4 3 3 2 2 1 1 1 1 1 1 2 2
11 8 8 10 10 10 9 7 7 7 8 5 6 6 5 6 5 5 4 4 4 5 5 5 5 5 5 4 4 3 3 3 3 3 2 2 2 2 1 1 1 1 1 1
8 8 10 11 9 9 8 5 8 8 9 8 8 9 3 6 5 5 5 5 4 4 5 5 5 5 4 4 4 4 3 3 3 2 2 2 2 1 1 1 2 1 2 1
10 8 8 8 7 7 6 6 7 9 9 9 6 8 3 2 3 4 6 6 5 5 5 4 4 4 4 4 4 4 4 3 2 2 2 2 1 1 1 1 1 1 1 1
11 10 8 7 8 8 9 8 6 7 7 5 3 6 1 2 1 2 4 6 6 6 6 5 5 5 4 4 4 4 4 3 2 2 1 1 2 2 2 1 1 1 1 1
9 8 8 8 9 7 9 10 7 6 6 4 5 4 2 4 2 1 3 5 6 6 6 6 6 5 5 5 4 3 3 3 3 2 2 1 1 1 1 0 0 1 0 1
6 6 6 6 7 8 9 9 6 8 9 7 4 3 4 4 3 3 4 5 6 6 6 6 5 5 4 4 4 4 3 3 3 3 2 2 2 1 1 1 1 0 1 1
6 6 6 5 7 6 7 5 5 7 6 6 5 4 0 2 2 4 5 5 6 6 5 5 5 4 4 4 4 4 3 3 3 3 3 2 2 2 1 1 1 1 1 1
7 7 6 8 8 7 8 7 6 6 6 7 4 2 5 3 1 2 4 5 6 6 5 5 5 4 4 4 4 4 3 3 3 3 3 2 2 2 2 1 1 1 1 1
5 5 6 7 3 4 5 6 7 6 5 6 5 2 5 3 2 2 3 4 5 5 5 5 5 5 4 4 4 3 3 3 3 3 3 3 2 3 3 2 2 1 1 1
5 6 6 7 7 7 6 6 8 7 6 6 6 2 5 3 2 2 3 4 5 5 5 5 5 5 4 4 3 3 3 3 3 3 3 3 3 3 3 3 2 2 2 1
5 6 8 6 4 4 6 7 8 9 7 7 6 2 0 1 1 2 3 4 4 4 5 5 4 4 4 3 3 3 3 3 3 3 3 3 3 3 3 3 3 2 2 1
5 7 7 7 5 6 7 8 8 10 9 8 4 3 2 2 1 2 4 4 5 4 4 5 4 4 4 4 4 3 3 2 3 3 3 3 3 3 3 3 2 2 2 2
5 6 7 8 7 6 7 7 8 9 8 8 6 3 2 1 1 2 4 4 4 3 3 4 4 4 3 3 3 3 3 3 3 4 3 3 3 3 3 3 3 3 2 2
6 7 8 8 7 8 8 6 7 7 5 6 6 2 1 1 1 2 4 4 3 3 3 3 3 3 2 2 2 3 3 3 3 4 3 3 4 4 4 4 3 3 3 3
6 7 6 6 7 9 1 0 4 5 4 3 2 1 1 1 0 2 3 3 2 2 3 3 2 2 2 2 3 3 3 3 3 4 3 3 3 4 4 4 3 3 3 3
6 7 6 6 8 5 4 2 4 5 5 3 3 2 1 1 2 3 3 2 2 2 2 3 3 3 3 2 2 3 3 3 3 3 3 3 3 3 4 4 3 3 3 3
5 6 7 7 8 7 2 2 2 5 5 2 2 2 1 3 3 2 3 2 2 2 2 3 3 3 3 3 3 3 3 3 3 3 3 3 3 3 4 3 3 3 3 3
7 6 8 8 7 3 3 0 4 6 1 2 0 1 1 2 3 3 3 3 3 3 3 3 3 3 3 2 3 3 3 2 3 3 3 3 3 3 4 3 3 3 3 3
6 5 6 7 7 2 4 1 1 4 4 1 1 0 1 1 1 1 3 3 3 3 3 3 2 2 3 3 3 3 2 2 2 3 3 3 3 3 3 3 3 3 4 4
2 3 2 2 2 6 3 3 4 3 2 2 1 1 1 1 1 1 2 3 3 3 3 3 2 2 2 2 3 3 2 2 2 3 3 3 3 3 3 3 4 4 4 4
2 2 1 1 2 2 2 3 3 3 3 3 2 2 2 2 2 2 2 2 3 3 3 3 3 2 1 2 2 2 2 3 3 2 2 3 3 4 3 3 3 3 3 4
2 1 2 2 1 1 2 4 4 3 3 3 2 2 2 1 1 2 2 2 2 2 2 2 2 2 2 1 1 1 1 2 3 3 3 3 4 3 3 4 3 4 2 2
2 3 4 1 1 3 2 3 4 3 2 3 2 1 1 1 1 1 2 2 2 2 2 2 2 2 2 1 1 1 2 2 3 3 3 3 3 3 3 3 3 1 2 1
Wind_Direction
201 225 227 229 240 266 267 261 256 266 284 259 262 268 264 217 233 233 217 206 202 191 171 164 169 168 168 170 174 177 175 163 179 189 210 202 209 228 225 218 192 272 272 253
212 228 234 235 236 246 250 252 252 250 228 261 269 268 251 220 230 232 221 206 200 183 167 159 162 166 166 163 170 178 176 166 189 186 218 222 241 241 226 227 162 246 264 265
231 233 213 224 225 234 242 249 254 263 265 240 252 241 215 203 214 213 213 202 193 187 176 168 166 165 166 166 171 178 176 178 189 180 192 174 177 221 187 194 174 214 240 252
238 234 224 227 229 238 242 244 250 252 253 248 242 259 209 192 194 205 203 195 185 181 176 174 167 164 167 164 164 165 170 172 169 181 185 188 209 223 217 220 147 162 177 214
228 219 224 232 236 239 249 240 244 247 256 263 238 255 206 182 205 201 196 191 187 185 176 171 168 163 158 154 155 152 147 151 159 171 169 198 210 222 197 188 151 175 147 179
241 231 237 244 237 232 228 223 232 235 242 247 245 256 244 179 213 198 184 182 179 177 172 167 156 154 153 149 151 146 145 145 145 162 169 190 189 198 185 177 144 161 138 146
222 216 212 223 221 204 217 229 234 229 228 240 203 243 278 78 184 223 187 175 173 173 171 166 162 162 160 160 161 154 152 149 142 143 166 184 187 187 184 194 158 156 148 129
225 212 198 209 229 232 223 238 253 267 259 254 210 237 92 88 85 175 178 165 164 170 169 168 167 167 169 168 169 164 166 160 150 150 153 154 177 207 143 152 238 152 91 69
237 216 185 204 224 235 223 233 267 271 267 263 223 179 155 121 132 152 159 160 164 167 168 169 165 164 165 167 170 175 172 164 162 160 152 152 158 133 96 148 210 117 46 45
249 236 204 188 205 214 249 237 237 254 263 257 224 214 170 100 132 155 163 165 160 160 163 160 159 165 166 164 164 170 172 179 175 169 169 158 159 157 154 168 92 34 358 332
233 230 208 196 213 211 202 210 235 254 273 277 262 107 50 36 62 153 156 157 157 160 161 156 157 166 172 173 169 178 179 188 187 181 176 174 174 170 181 195 184 197 250 246
219 239 220 209 198 246 233 229 228 243 247 266 281 83 70 60 85 119 138 143 145 154 156 156 159 161 167 178 179 181 196 199 196 189 184 184 181 179 191 186 185 194 211 229
198 219 213 197 191 199 215 228 234 250 257 256 260 133 97 92 99 117 133 137 141 150 155 159 163 168 172 177 180 186 203 209 206 194 193 187 189 190 194 189 182 183 190 211
227 232 246 243 238 212 215 222 231 237 245 252 260 271 286 357 89 124 135 139 141 150 159 163 166 173 176 184 189 200 211 215 217 208 200 192 190 192 200 196 187 186 194 205
232 232 242 258 257 244 240 236 227 236 257 270 271 262 312 346 26 138 151 152 153 158 164 170 174 177 184 188 195 208 217 218 218 212 203 195 192 193 196 193 191 195 206 212
224 236 230 234 232 238 238 238 230 234 247 254 260 270 17 39 102 144 161 165 164 167 177 181 184 183 192 195 198 202 211 211 210 209 206 200 199 200 200 200 198 199 208 225
213 223 231 232 218 233 227 234 233 226 235 250 257 281 127 198 161 173 179 174 168 176 183 186 187 188 195 200 202 203 205 206 203 202 203 205 210 210 210 210 200 205 219 228
229 232 241 237 220 236 171 129 239 226 220 235 265 288 253 287 276 177 177 179 177 178 177 177 185 183 185 189 192 195 197 193 191 199 199 207 217 218 214 210 208 217 227 235
225 231 243 244 236 224 179 198 237 235 219 211 231 237 200 155 181 156 141 171 179 169 163 166 171 168 164 174 179 185 192 190 192 202 206 205 212 225 224 219 218 224 229 232
194 230 244 241 246 241 151 101 274 245 215 141 215 218 214 219 243 109 128 163 156 138 146 150 157 155 156 167 181 193 198 202 210 214 215 208 215 229 235 229 225 225 231 235
196 210 233 242 242 222 38 26 213 230 52 61 217 190 220 251 351 42 135 151 149 146 145 144 154 159 162 178 192 208 214 220 226 222 216 214 218 229 231 235 229 227 231 233
223 218 217 235 239 187 58 148 254 14 29 27 21 61 241 292 46 87 135 145 149 154 156 159 159 163 175 188 199 211 218 233 241 232 219 213 217 233 222 229 238 233 235 229
271 328 305 298 41 65 65 47 31 9 1 357 342 332 277 234 223 148 147 153 160 164 165 170 169 162 171 187 204 212 209 221 233 237 229 218 212 229 231 231 231 226 225 243
126 340 262 186 111 71 53 29 2 354 350 345 327 305 255 235 213 173 160 165 165 168 170 177 173 166 168 190 203 213 211 219 228 232 228 217 216 226 222 241 244 246 242 254
349 295 240 201 103 20 35 12 358 351 349 347 336 310 285 265 217 185 179 168 165 159 162 174 179 182 180 197 212 201 201 218 228 233 236 235 228 229 231 233 252 268 282 310
308 297 281 287 355 303 329 348 350 343 341 340 337 334 318 295 238 185 169 163 172 171 160 168 187 192 183 194 216 211 207 213 224 234 242 243 239 233 236 236 222 195 265 211